Regional Weather Roundup
Issued by NWS Kansas City/Pleasant Hill, MO

Home | Current Version | Previous Version | Text Only | Print | Product List | Glossary On
Versions: 1 2 3 4 5 6 7 8 9 10 11 12 13 14 15 16 17 18 19 20 21 22 23 24 25 26 27 28 29 30 31 32 33 34 35 36 37 38 39 40 41 42 43 44 45 46 47 48 49 50
000
ASUS43 KEAX 251004
RWREAX

WEATHER ROUNDUP FOR EASTERN KANSAS AND NORTHWEST MISSOURI
NATIONAL WEATHER SERVICE KANSAS CITY/PLEASANT HILL MO
500 AM CDT FRI JUL 25 2014

KSZ040-057-103>105-MOZ028-029-037-043-251100-
...KANSAS CITY METROPOLITAN AREA...

CITY           SKY/WX    TMP DP  RH WIND       PRES   REMARKS
K.C. INTL      MOCLDY    72  62  71 S13       29.88S
K.C. DOWNTOWN  MOCLDY    73  61  65 S10       29.88S
LEES SUMMIT    MOCLDY    70  59  68 S9        29.91S
OLATHE - IXD   PTCLDY    69  63  81 S9        29.89F
OLATHE - OJC   PTCLDY    69  61  75 S8        29.89F
LAWRENCE       PTCLDY    71  65  81 E7        29.87F

$$

MOZ001>008-011>017-020>025-030>033-038>040-044>046-053-054-251100-
...NORTHERN AND CENTRAL MISSOURI...

CITY           SKY/WX    TMP DP  RH WIND       PRES   REMARKS
ST. JOSEPH     CLOUDY    71  62  73 SE7       29.87S
MOSBY            N/A     68  59  73 SE5       29.89S
WHITEMAN AFB   PTCLDY    66  49  54 S8        29.93S
CLINTON        MOCLDY    70  61  73 S8        29.94S
SEDALIA        CLOUDY    67  57  70 S9        29.95R
WARSAW         NOT AVBL
MARSHALL       CLOUDY    66  59  77 SE8       29.94F
CHILLICOTHE      N/A     67  56  67 SE5       29.95R
KIRKSVILLE     CLOUDY    63  55  75 S9        29.98S

$$

MOZ041-047>049-056>058-063>065-088>090-097-251100-
...EASTERN AND SOUTHERN MISSOURI...

CITY           SKY/WX    TMP DP  RH WIND       PRES   REMARKS
ST. LOUIS INTL MOCLDY    66  57  72 SE5       30.04R
SPIRIT OF STL  MOCLDY    58  56  93 CALM      30.03R
COLUMBIA       CLOUDY    63  56  78 SE9       30.00R
JEFFERSON CITY CLOUDY    64  55  72 E7        30.00R
HANNIBAL       CLOUDY    66  50  55 SE6       30.00F
ROLLA          MOCLDY    65  55  70 S9        30.01S
LEBANON        MOCLDY    64  57  77 S10       30.02R
OSAGE BEACH    MOCLDY    64  54  68 SE6       30.00R
SPRINGFIELD    PTCLDY    67  58  72 S13       30.00F
BRANSON        CLOUDY    66  63  88 S5        30.05R
NEVADA         PTCLDY    68  63  83 S7        29.95S
JOPLIN         PTCLDY    70  66  87 S10       29.97F
WEST PLAINS    CLEAR     63  55  75 CALM      30.06S

$$

IAZ060-094-KSZ022-034>040-054-083-096-NEZ052-066-093-251100-
...KANSAS...SOUTHEAST NEBRASKA AND IOWA...

CITY           SKY/WX    TMP DP  RH WIND       PRES   REMARKS
TOPEKA         MOCLDY    77  70  79 CALM      29.85F
MANHATTAN      MOCLDY    78  70  76 SW14      29.84F
EMPORIA        PTCLDY    75  70  84 S18G26    29.87F
CHANUTE        PTCLDY    72  70  93 S12       29.93F
WICHITA        PTCLDY    75  69  81 S15G24    29.91F
OMAHA          CLOUDY    80  67  64 S20G30    29.75R
LINCOLN        MOCLDY    73  66  78 S13       29.76F
FALLS CITY     MOCLDY    71  61  70 S13       29.82F
LAMONI         CLOUDY    66  57  72 S12G18    29.90F
DES MOINES     CLOUDY    66  60  81 E17G24    29.92F

$$




USA.gov is the U.S. government's official web portal to all federal, state and local government web resources and services.